Location: Cheyres
(46.8153°N, 6.7877°E)
Time: 01:02:17
(UTC+00:00)

Cosmos 1867 - Pass Details

Date: 11 May 2021
Orbit: 773 x 802 km, 65.0° (Epoch: 23 June)

Event Time Altitude Azimuth Distance (km) Brightness Sun altitude
Exits shadow 23:25:58 73° 170° (S) 833 3.4 -25.0°
Maximum altitude 23:26:23 78° 124° (SE) 817 3.4 -25.0°
Drops below altitude 10° 23:31:51 10° 39° (NE) 2,380 6.7 -25.0°
Sets 23:34:18 0° 38° (NE) 3,317 7.6 -25.0°
